Theta_e
338 336 337 336 332 329 328 326 323 321 321 321 321 321 319 317 316 314 312 309 307 308 309 311 312 311 312 312 314 316 315 314 314 315 315 314 312 312 312 311 311 311 310
334 333 331 328 328 327 323 322 321 321 321 321 319 318 317 316 315 313 310 307 305 305 305 305 305 305 304 303 306 308 310 312 314 314 312 311 310 310 310 309 307 306 306
329 328 328 327 326 323 322 321 321 321 319 319 318 318 317 314 313 312 310 307 305 305 307 307 308 307 306 306 305 308 310 311 311 310 309 308 307 306 306 306 306 306 306
327 326 325 324 323 322 321 321 320 319 318 317 316 315 310 310 310 307 305 303 303 306 308 308 308 308 307 306 306 306 306 306 306 306 306 305 306 306 306 306 306 306 306
326 325 324 323 322 321 320 317 315 313 312 311 309 305 305 307 305 307 307 305 302 304 307 308 308 307 307 306 306 306 306 306 306 306 306 306 306 306 306 306 306 306 306
323 323 323 321 320 318 314 314 314 310 307 304 305 306 308 308 308 309 308 307 305 305 304 304 305 305 306 306 306 306 306 306 306 306 306 306 306 306 307 306 306 306 306
322 322 321 320 319 315 314 314 310 305 305 306 307 308 309 309 309 309 308 307 306 306 305 305 305 306 306 306 306 306 306 307 306 306 306 306 306 306 306 306 306 306 306
322 321 322 320 318 315 314 309 305 305 307 308 308 308 308 307 309 309 307 307 307 306 306 306 305 305 305 305 305 305 305 306 305 305 305 306 306 306 306 305 305 306 305
322 322 321 320 316 315 312 308 304 305 306 307 307 308 308 308 306 307 309 308 307 306 306 306 305 305 305 304 305 305 305 305 305 305 305 306 306 306 306 306 306 305 304
323 322 321 318 315 314 313 309 304 304 305 307 308 308 308 308 308 307 307 306 308 308 307 306 305 305 305 304 305 305 305 305 305 305 305 305 305 306 306 306 304 304 305
323 322 318 315 316 315 312 305 304 305 307 309 308 308 308 309 308 308 308 307 306 306 307 306 305 305 304 304 304 304 304 305 305 305 305 305 305 306 305 304 304 304 304
320 317 316 318 314 313 308 307 306 307 309 308 308 308 308 309 309 309 308 307 307 306 305 305 305 305 304 304 304 304 304 304 306 305 305 305 305 306 305 305 304 303 304
317 319 318 314 313 310 309 310 310 309 309 309 309 310 310 311 310 310 309 307 307 306 304 306 305 305 304 304 304 304 304 304 305 305 305 306 306 306 306 305 304 304 303
318 313 309 308 307 308 309 310 310 310 309 309 308 308 308 307 307 310 310 307 307 305 304 305 305 304 304 304 304 303 304 304 304 303 304 305 306 306 305 305 305 305 305
313 312 311 311 311 310 310 310 310 309 308 309 308 308 306 305 305 304 305 305 304 305 305 305 304 304 304 303 303 303 303 303 304 304 303 305 306 306 306 306 306 305 305
313 313 312 310 310 310 309 309 309 309 309 309 308 308 306 305 303 303 303 303 304 305 304 304 303 303 303 303 303 303 303 303 303 303 303 305 306 306 306 307 306 306 306
314 313 312 311 310 309 309 309 309 309 309 309 309 308 307 305 304 304 304 305 305 304 304 304 303 303 303 303 303 303 303 303 303 303 303 304 306 306 306 307 306 305 306
315 314 313 313 311 310 310 309 309 309 309 309 309 310 309 308 305 304 304 304 304 304 304 304 303 303 303 303 303 303 302 302 303 303 303 304 304 305 304 305 304 304 304
317 315 314 313 312 311 311 310 310 309 309 309 310 310 310 309 306 305 304 304 303 304 304 304 303 303 304 304 303 302 302 302 302 302 303 304 304 304 304 304 303 303 303
317 317 315 314 313 311 312 311 310 310 310 310 309 308 306 304 304 305 306 304 303 304 304 304 304 304 304 303 302 301 301 300 300 302 305 304 304 304 304 304 304 304 304
317 317 316 314 311 310 310 309 310 310 310 309 306 305 304 304 304 303 304 303 304 304 304 303 303 303 303 301 301 301 298 296 300 302 304 304 303 303 303 303 303 303 302
314 316 315 312 311 311 310 310 310 310 308 305 305 305 304 304 304 304 304 304 304 304 303 303 302 301 300 298 297 297 296 298 301 302 304 303 303 303 302 302 302 301 302
315 314 313 312 311 311 310 310 311 310 306 305 305 305 305 305 305 305 304 304 304 304 303 302 302 300 299 298 298 298 298 300 302 304 303 303 303 302 302 302 301 301 301
311 312 311 311 311 311 310 311 311 308 306 305 305 304 305 305 304 304 304 304 303 303 303 302 301 299 298 297 295 296 298 300 302 303 303 303 302 302 301 301 301 300 300
312 310 310 310 311 311 311 310 309 305 305 304 304 304 304 304 304 303 303 303 303 302 302 302 301 300 298 297 296 295 297 300 302 302 302 302 301 301 300 300 300 300 300
312 311 311 311 311 311 310 307 306 306 306 305 305 305 305 304 304 303 303 303 303 302 302 302 301 300 298 298 296 295 295 297 300 301 301 301 300 299 299 299 300 299 299
Wind_Speed
11 10 10 11 12 13 12 12 11 12 12 11 11 12 12 13 14 15 15 15 13 11 10 11 11 11 9 7 7 5 5 4 4 6 5 4 6 8 9 11 13 15 17
14 15 15 15 13 12 12 12 11 10 11 11 11 11 12 12 13 14 15 14 14 13 13 13 16 14 12 11 10 9 7 6 4 5 3 4 6 10 12 14 16 15 13
18 16 15 13 13 13 12 12 11 9 10 9 9 10 10 11 12 13 13 13 12 12 14 15 17 17 18 16 13 10 11 9 7 5 5 6 8 9 8 10 13 13 11
16 14 14 15 14 13 11 10 8 8 9 9 8 9 8 10 12 14 16 15 13 13 13 13 15 16 17 17 17 18 15 12 9 8 9 9 11 13 13 14 16 16 14
17 15 16 15 12 10 9 8 8 8 8 9 10 9 10 13 17 17 18 18 16 14 13 13 13 13 14 14 13 14 14 15 16 11 12 12 14 14 17 17 17 17 16
16 16 15 13 11 10 10 9 7 7 9 10 12 14 16 17 15 15 16 19 19 18 16 14 12 12 13 13 14 14 14 14 16 16 16 16 16 14 15 18 18 19 21
16 13 14 12 9 9 8 6 7 9 12 14 14 12 12 11 10 11 13 17 18 18 18 20 19 16 13 11 10 11 13 13 15 16 17 17 15 16 19 17 18 16 17
13 13 13 10 9 7 7 8 10 11 11 11 11 11 10 8 7 7 7 10 15 16 15 16 16 15 15 14 7 7 10 11 12 14 16 16 16 16 16 17 19 16 15
14 13 12 8 9 8 8 9 10 9 10 9 10 11 10 11 11 6 3 5 7 8 11 11 12 13 13 13 9 10 10 10 11 12 13 14 14 14 14 15 18 19 18
14 14 13 11 7 8 7 7 9 10 9 12 10 9 9 10 10 8 9 8 7 7 5 9 8 12 10 12 10 10 11 13 12 11 12 11 11 12 15 17 19 18 15
15 16 15 10 9 5 6 9 10 10 9 8 5 4 5 8 10 7 7 10 9 8 6 6 5 8 8 11 10 9 11 16 13 12 11 12 10 10 13 18 20 18 16
17 16 13 12 6 7 9 11 10 8 5 2 4 4 6 9 9 9 9 9 10 8 6 5 4 5 6 8 9 12 12 14 13 13 11 15 14 13 13 17 20 17 15
17 15 14 9 9 11 13 10 6 3 1 2 5 9 10 12 14 13 11 10 12 10 5 3 3 3 6 7 9 10 11 13 14 14 12 13 15 14 12 14 16 17 16
18 15 11 11 13 14 10 5 2 1 2 5 7 7 9 11 12 13 12 12 14 5 3 1 2 4 3 6 8 11 11 11 12 14 13 12 14 13 11 12 15 17 18
19 17 17 15 12 9 6 4 2 3 4 5 6 7 10 11 13 11 11 9 3 4 3 0 2 3 4 5 8 11 10 10 10 12 14 12 13 13 11 13 14 14 17
20 18 16 14 10 8 5 5 4 2 4 5 4 6 9 14 12 6 3 2 4 5 0 2 3 2 5 6 8 10 9 11 10 10 12 12 14 15 13 13 12 14 16
18 16 15 13 10 6 3 4 4 0 4 4 6 7 8 12 10 6 4 4 3 1 2 2 3 4 4 7 10 15 9 6 10 14 12 9 13 15 15 13 13 16 17
17 13 11 8 7 7 3 5 3 4 3 6 7 8 8 9 8 6 2 2 4 3 4 3 3 4 6 9 13 13 9 9 10 9 7 7 10 12 15 15 17 18 18
18 16 11 10 9 7 5 8 5 4 6 9 9 9 10 10 8 6 4 5 5 3 2 4 5 8 9 9 14 8 10 9 10 10 4 5 8 10 12 14 13 15 17
15 17 15 12 11 10 9 8 8 8 9 8 8 8 9 7 6 7 7 5 2 3 1 6 9 8 6 11 11 8 9 11 9 7 3 6 8 13 15 13 13 15 17
13 17 16 13 12 8 8 8 8 8 10 8 6 6 2 0 2 1 4 5 5 2 4 6 4 6 10 11 8 9 11 10 6 4 2 6 9 9 14 14 15 14 14
16 15 14 15 12 9 9 8 6 8 7 6 4 2 1 1 1 1 1 2 2 3 4 3 5 9 9 8 9 10 9 6 4 5 2 6 9 12 11 12 14 17 14
13 14 15 12 10 11 13 11 9 9 6 5 3 2 1 1 1 2 1 2 2 2 4 3 6 8 7 9 9 9 8 4 3 4 4 6 9 14 12 12 13 18 16
12 11 13 14 13 10 10 12 13 10 9 8 6 5 4 3 3 3 4 3 3 3 3 4 6 7 7 9 9 8 7 3 3 4 6 8 10 14 12 12 13 15 16
12 13 11 11 11 10 11 12 10 9 6 7 7 6 6 6 5 2 2 3 3 3 4 5 6 8 8 8 8 8 7 4 4 5 7 8 11 14 14 13 13 12 15
10 13 13 12 12 10 8 8 8 8 7 5 6 5 4 4 5 5 4 4 4 5 5 6 7 8 8 8 8 8 7 6 6 8 9 11 13 14 14 14 12 11 14
Wind_Direction
138 131 153 147 132 117 116 112 104 98 87 74 68 65 59 47 38 31 40 44 39 42 41 36 42 35 25 27 36 53 63 62 74 104 95 40 352 344 339 339 334 331 326
137 139 130 120 110 109 111 108 97 87 84 77 70 58 51 45 42 43 44 43 42 51 52 49 52 43 48 45 43 53 59 81 79 112 98 23 353 346 337 326 328 331 328
132 127 116 107 115 114 108 102 96 90 82 75 59 55 53 49 47 44 35 37 49 61 59 58 59 52 53 52 57 64 64 68 65 52 31 10 352 350 5 20 19 15 11
131 130 118 113 114 110 107 101 92 80 70 63 57 56 57 61 58 51 52 51 58 64 64 62 59 51 51 54 61 63 60 57 50 45 47 46 43 38 32 29 27 25 27
141 138 124 113 114 112 106 99 86 73 57 59 57 65 79 79 73 62 54 51 58 65 66 61 56 50 51 54 56 53 51 49 47 54 50 42 36 29 26 20 16 17 15
125 129 125 129 131 125 111 93 75 72 72 74 83 88 85 79 69 58 50 48 56 60 59 57 59 62 55 60 58 51 48 47 49 47 42 36 26 21 17 10 10 12 17
117 121 138 138 130 113 81 68 82 90 95 95 97 83 78 75 73 57 51 43 51 55 57 59 60 61 56 54 52 49 41 36 36 35 29 25 23 23 15 18 15 15 12
137 142 141 143 134 116 97 99 107 114 112 103 97 89 73 67 65 67 54 50 39 44 51 53 48 44 42 39 32 44 38 29 25 20 12 16 16 12 11 14 11 13 9
159 149 140 151 150 127 111 110 120 121 120 115 104 96 70 59 57 48 4 354 12 27 38 33 41 28 24 16 34 54 35 25 20 14 6 4 3 6 11 9 7 3 8
163 151 165 163 149 132 114 115 125 126 119 115 103 82 54 33 26 34 32 14 351 329 353 14 18 15 22 26 47 37 25 12 12 9 7 0 359 4 8 6 1 2 357
161 166 167 160 149 135 128 124 130 126 121 118 86 40 8 356 342 356 5 14 9 358 3 13 18 16 30 21 26 23 17 10 13 12 14 18 15 17 23 17 9 5 2
161 166 166 162 164 149 138 122 120 130 120 67 358 302 300 305 317 328 332 340 349 347 351 356 7 15 18 15 20 14 3 4 7 11 12 17 26 27 24 17 10 10 15
164 162 165 171 162 150 138 126 118 110 134 269 309 311 289 293 300 303 310 316 329 329 337 54 37 31 353 1 0 1 1 2 9 11 13 15 12 14 17 23 27 26 17
156 157 155 150 141 151 157 152 134 268 306 307 321 334 333 320 311 299 294 301 312 318 143 41 2 317 340 350 355 358 357 4 1 13 9 2 7 13 16 13 15 17 21
150 146 147 143 150 157 174 177 207 295 323 328 322 331 344 343 327 300 289 292 270 140 134 212 343 339 343 339 347 354 355 357 355 358 2 7 9 8 5 6 6 11 13
158 155 154 151 158 166 172 198 226 277 323 334 333 336 348 356 1 20 49 91 145 136 10 306 318 351 356 3 352 341 340 346 349 355 354 3 5 4 2 359 8 3 357
166 163 169 173 180 177 195 208 170 262 339 316 318 328 337 356 13 35 69 103 130 133 308 20 77 353 324 322 333 342 341 337 329 328 331 352 358 4 11 11 7 7 4
182 181 186 199 203 193 196 189 212 262 285 307 312 312 315 331 348 15 335 265 258 286 262 186 354 328 302 320 340 346 3 344 335 347 357 359 353 3 10 12 10 10 8
194 198 203 206 213 218 240 231 260 262 266 294 302 308 304 303 299 297 328 344 337 204 178 201 291 316 307 329 340 337 342 345 342 351 10 354 353 0 4 358 9 13 9
212 205 208 213 223 220 246 243 243 259 285 297 306 306 306 299 285 279 273 280 250 170 279 299 298 302 324 329 333 335 333 332 330 334 344 349 354 350 349 353 352 351 355
209 207 213 209 204 220 232 224 263 278 283 290 295 313 295 20 351 261 247 234 205 242 321 331 336 328 322 324 325 326 329 333 338 334 308 338 339 341 348 358 356 356 359
207 209 205 201 208 228 216 248 268 288 283 277 297 300 248 189 48 58 133 184 236 295 333 346 349 343 339 342 342 341 341 342 344 346 341 330 331 334 341 339 344 349 341
188 186 195 206 215 216 224 246 265 270 264 270 283 303 259 257 269 264 269 234 260 304 345 347 342 343 348 347 347 347 349 355 358 1 347 340 338 343 331 336 343 352 353
176 200 205 196 209 238 247 260 267 255 259 259 272 288 273 266 256 253 240 260 277 286 318 323 332 343 345 349 347 348 349 340 345 348 340 340 351 349 342 336 338 342 353
200 182 188 206 234 247 266 271 256 242 260 254 262 283 276 254 231 250 256 258 277 313 301 312 325 334 337 342 345 347 346 333 322 334 345 345 342 347 351 343 331 333 338
204 200 215 236 231 241 265 254 235 246 263 270 256 272 281 262 243 250 264 297 304 314 309 298 309 321 329 333 339 342 341 331 313 313 320 328 336 339 339 339 329 326 336